RESURS DK-1 - Orbit

View from above orbital plane
View from above orbital plane
View from above satellite
View from above satellite

Ground track
Ground track

The orbit data is extracted from the following two-line orbital elements,

1 29228U 06021A   13143.34564186  .00001110  00000-0  96931-4 0  7736
2 29228 069.9365 273.0260 0002768 140.0524 298.0000 14.99922474385109
Epoch (UTC): 23 May 2013 08:17:43
Eccentricity: 0.0002768
inclination: 69.9365°
perigee height: 565 km
apogee height: 569 km
right ascension of ascending node: 273.0260°
argument of perigee: 140.0524°
revolutions per day: 14.99922474
mean anomaly at epoch: 298.0000°
orbit number at epoch: 38510

The dashed part of the orbit path shows where the satellite is in the earth's shadow,  

Developed and maintained by Chris Peat, Heavens-Above GmbH. Please read the updated FAQ before sending e-mail. Imprint. DLR